Location: Kimberly
(42.5380°N, 114.3640°W)
Time: 12:00:18
(UTC-06:00)

Envisat - Visible Passes

Search period start: 26 July 2021 00:00
Search period end: 05 August 2021 00:00
Orbit: 764 x 766 km, 98.1° (Epoch: 25 July)

Date Brightness Start Highest point End Pass type
(mag) Time Alt. Az. Time Alt. Az. Time Alt. Az.
26 Jul 5.6 05:51:35 10° NE 05:55:10 19° E 05:58:45 10° SE visible
29 Jul 5.8 05:40:41 10° NE 05:43:34 15° E 05:46:26 10° SE visible
01 Aug 6.0 05:30:14 10° ENE 05:31:56 12° E 05:33:38 10° ESE visible
03 Aug 5.6 05:53:49 10° NE 05:57:36 21° E 06:01:20 10° SE visible
